カタログに戻る

COSMOS 839 DEB

運用中UNKNOWN
NORAD 10623·DEBRIS·🇷🇺 Russia

打ち上げ Jul 8, 1976 から Plesetsk Cosmodrome

Loading…

次のパス (今後24時間)

TLE

最新Source: Space-Track

元期: Sep 14, 2026, 06:40 UTC

1 10623U 76067AX  26257.27819625  .00000174  00000-0  70743-3 0  9996
2 10623  65.7743 207.8996 0694939 358.5970  67.3069 12.43024561272385

AllMySatでCOSMOS 839 DEBをリアルタイム追跡

Download on the App Store